FW8285 Weather Reports


Display with metric or nautical units.
time (UTC)temp
F
wind
direction
speed
MPH
gust
MPH
rain 1hr
in
rain 24hr
in
rain mn
in
humidity
%
barometer
mb
20260510074541 50 0 0.0 0.0 0.00 0.24 0.00 97 1008.3
20260510073037 50 0 0.0 0.0 0.00 0.24 0.00 97 1008.2
20260510071543 50 0 0.0 1.0 0.00 0.24 0.00 97 1007.6
20260510070047 50 0 0.0 1.0 0.00 0.24 0.00 97 1008.1
20260510064543 50 0 0.0 0.0 0.00 0.24 0.00 97 1008.6
20260510063044 50 0 0.0 0.0 0.00 0.24 0.00 97 1009.0
20260510061537 50 0 0.0 0.0 0.00 0.24 0.00 97 1009.2
20260510060037 51 0 0.0 0.0 0.00 0.24 0.00 97 1009.4
20260510054547 51 0 0.0 0.0 0.00 0.24 0.00 97 1009.2
20260510053044 51 0 0.0 0.0 0.00 0.24 0.00 97 1008.8
20260510051545 51 0 0.0 0.0 0.00 0.24 0.00 97 1008.4
20260510050041 51 0 0.0 1.0 0.00 0.24 0.00 97 1008.3
20260510044538 51 0 0.0 5.0 0.00 0.24 0.00 97 1008.3
20260510043041 51 124 0.0 4.0 0.00 0.24 0.00 97 1008.3
20260510041546 51 0 0.0 1.0 0.00 0.24 0.00 96 1008.3
20260510040052 51 0 0.0 3.0 0.00 0.24 0.00 97 1008.5
20260510034545 51 0 0.0 4.0 0.00 0.24 0.24 97 1008.4
20260510033039 51 160 0.0 4.0 0.00 0.24 0.24 96 1008.2
20260510031554 51 129 0.0 7.0 0.00 0.24 0.24 96 1008.3
20260510030039 51 130 2.0 4.0 0.01 0.24 0.24 96 1008.2
20260510024545 51 109 2.0 7.0 0.01 0.24 0.24 97 1008.1
20260510023041 51 138 2.0 7.0 0.01 0.24 0.24 97 1008.2
20260510021538 51 135 1.0 4.0 0.01 0.24 0.24 97 1008.5
20260510020043 51 0 0.0 4.0 0.00 0.23 0.23 97 1008.3
20260510014543 51 131 0.0 5.0 0.00 0.23 0.23 97 1008.3
20260510013047 51 140 1.0 7.0 0.00 0.23 0.23 97 1008.3
20260510011546 51 0 0.0 4.0 0.00 0.23 0.23 97 1008.1
20260510010041 51 132 0.0 4.0 0.00 0.23 0.23 97 1008.4
20260510004543 51 143 0.0 3.0 0.00 0.23 0.23 97 1008.0
20260510003039 51 97 0.0 3.0 0.00 0.23 0.23 97 1008.1
20260510001547 52 0 0.0 2.0 0.00 0.23 0.23 97 1008.3
20260509234555 52 126 0.0 2.0 0.00 0.23 0.23 97 1007.7
20260509233046 52 0 0.0 3.0 0.00 0.23 0.23 97 1007.5
20260509231543 52 0 0.0 2.0 0.00 0.23 0.23 97 1007.5
20260509230041 52 0 0.0 3.0 0.00 0.23 0.23 97 1007.2
20260509224536 52 136 0.0 2.0 0.00 0.23 0.23 97 1007.4
20260509223039 52 0 0.0 2.0 0.00 0.23 0.23 97 1007.4
20260509221548 51 0 0.0 2.0 0.00 0.23 0.23 97 1007.3
20260509220043 51 0 0.0 2.0 0.00 0.23 0.23 97 1007.5
20260509214543 50 0 0.0 3.0 0.00 0.23 0.23 97 1007.8
20260509213042 50 0 0.0 3.0 0.00 0.23 0.23 97 1008.0
20260509211542 49 0 0.0 3.0 0.00 0.23 0.23 97 1007.9
20260509210044 49 0 1.0 4.0 0.00 0.23 0.23 97 1008.1
20260509204543 49 0 0.0 5.0 0.00 0.23 0.23 97 1008.2
20260509203036 49 0 1.0 6.0 0.00 0.23 0.23 97 1008.2
20260509201546 49 107 1.0 4.0 0.00 0.23 0.23 97 1008.5
20260509200057 48 53 0.0 4.0 0.00 0.23 0.23 97 1008.7
20260509194539 48 124 1.0 4.0 0.00 0.23 0.23 97 1008.8
20260509193037 49 138 0.0 8.0 0.00 0.23 0.23 97 1009.0
20260509191537 48 0 2.0 8.0 0.00 0.23 0.23 97 1008.9
20260509190040 48 133 2.0 7.0 0.00 0.23 0.23 97 1009.0
20260509184553 48 0 1.0 7.0 0.00 0.23 0.23 96 1009.1
20260509183044 47 0 0.0 4.0 0.00 0.23 0.23 97 1009.2
20260509181555 47 124 1.0 8.0 0.01 0.23 0.23 96 1009.1
20260509180044 47 110 1.0 6.0 0.01 0.23 0.23 96 1009.3
20260509174541 47 127 1.0 9.0 0.01 0.23 0.23 96 1009.3
20260509173049 47 92 0.0 5.0 0.02 0.23 0.23 96 1009.4
20260509171540 47 0 1.0 8.0 0.01 0.22 0.22 96 1009.5
20260509170039 47 129 2.0 8.0 0.02 0.22 0.22 96 1009.5
20260509164536 47 0 1.0 7.0 0.03 0.22 0.22 96 1009.7
20260509163043 47 118 1.0 4.0 0.03 0.21 0.21 96 1010.0
20260509161543 47 119 0.0 4.0 0.04 0.21 0.21 96 1010.0
20260509160044 46 106 0.0 3.0 0.04 0.20 0.20 96 1010.4
20260509154540 45 345 2.0 6.0 0.05 0.19 0.19 96 1010.7
20260509153043 45 0 1.0 7.0 0.06 0.18 0.18 96 1010.9
20260509151535 45 9 1.0 6.0 0.07 0.17 0.17 96 1010.9
20260509150044 45 0 0.0 3.0 0.07 0.16 0.16 96 1011.0
20260509144600 44 111 0.0 6.0 0.07 0.14 0.14 95 1011.1
20260509143040 44 0 1.0 5.0 0.07 0.12 0.12 95 1010.9
20260509141540 44 0 0.0 6.0 0.06 0.10 0.10 95 1010.9
20260509140054 44 109 0.0 3.0 0.06 0.09 0.09 95 1011.0
20260509134604 44 0 1.0 3.0 0.05 0.07 0.07 94 1011.0
20260509133046 44 0 0.0 3.0 0.03 0.05 0.05 94 1011.0
20260509131540 44 0 0.0 2.0 0.03 0.04 0.04 94 1011.1
20260509130053 44 123 0.0 2.0 0.03 0.03 0.03 93 1011.0
20260509124538 43 95 0.0 3.0 0.02 0.02 0.02 93 1011.1
20260509123101 43 0 0.0 3.0 0.02 0.02 0.02 92 1011.2
20260509121600 43 0 0.0 5.0 0.01 0.01 0.01 91 1011.3
20260509120038 43 0 0.0 4.0 0.00 0.00 0.00 89 1011.3
20260509114540 44 0 0.0 4.0 0.00 0.00 0.00 87 1011.3
20260509113040 44 0 1.0 6.0 0.00 0.00 0.00 85 1011.4
20260509111551 44 107 0.0 7.0 0.00 0.00 0.00 83 1011.2
20260509110045 43 0 2.0 7.0 0.00 0.00 0.00 83 1011.2
20260509104546 42 32 1.0 5.0 0.00 0.00 0.00 85 1010.9
20260509103051 40 0 0.0 3.0 0.00 0.00 0.00 86 1010.9
20260509101614 39 0 0.0 2.0 0.00 0.00 0.00 87 1010.9
20260509100042 38 0 0.0 2.0 0.00 0.00 0.00 88 1011.3
20260509094540 38 355 0.0 2.0 0.00 0.00 0.00 88 1011.1
20260509093042 38 0 0.0 0.0 0.00 0.00 0.00 88 1011.2
20260509091544 38 0 0.0 0.0 0.00 0.00 0.00 88 1011.5
20260509090043 37 0 0.0 2.0 0.00 0.00 0.00 89 1011.4
20260509084545 36 0 0.0 1.0 0.00 0.00 0.00 90 1011.5
20260509083037 36 0 0.0 0.0 0.00 0.00 0.00 91 1011.4
20260509081542 35 0 0.0 1.0 0.00 0.00 0.00 91 1011.4
20260509080041 35 0 0.0 2.0 0.00 0.00 0.00 90 1011.2